Location: Newark
(35.6799°N, 139.7636°E)
Time: 00:23:55
(UTC+00:00)

Transit 2A - Pass Details

Date: 12 December 2019
Orbit: 601 x 957 km, 66.7° (Epoch: 19 January)

Event Time Altitude Azimuth Distance (km) Brightness Sun altitude
Rises 06:04:11 0° 338° (NNW) 2,884 8.8 13.1°
Reaches altitude 10° 06:06:26 10° 343° (NNW) 2,000 8.0 12.8°
Maximum altitude 06:10:49 52° 61° (ENE) 810 6.0 12.1°
Drops below altitude 10° 06:15:32 10° 138° (SE) 2,150 8.4 11.4°
Sets 06:18:01 0° 143° (SE) 3,122 9.2 11.0°
